Hourly Data Report for October 24, 2013

All times are specified in Local Standard Time (LST). Add 1 hour to adjust for Daylight Saving Time where and when it is observed.

HALL BEACH A
NUNAVUT

68°46'33.000" N
81°14'33.000" W
9.10 m
2402354
71293
YUX

Download Data

Hourly Data (October 2013)
Hourly Data Report for October 24, 2013
Temp Definition
°C
Dew Point Temp Definition
°C
Rel Hum Definition
%
Wind Dir Definition
10's deg

Wind Spd Definition
km/h
Visibility Definition
km
Stn Press Definition
kPa
Hmdx Definition


Wind Chill Definition


Weather Definition


TIME
00:00 Legend Double Dagger -15.4 -16.9 88 31 18 16.1 101.26   -24 LegendNANA
01:00 Legend Double Dagger -16.2 -17.8 88 32 18 16.1 101.24   -25 LegendNANA
02:00 Legend Double Dagger -15.9 -17.4 88 32 22 16.1 101.23   -26 LegendNANA
03:00 Legend Double Dagger -11.6 -12.7 92 31 17 16.1 101.20   -19 LegendNANA
04:00 Legend Double Dagger -9.7 -10.6 93 30 13 16.1 101.18   -16 LegendNANA
05:00 Legend Double Dagger -8.7 -9.6 93 31 17 16.1 101.14   -16 LegendNANA
06:00 Legend Double Dagger -8.4 -9.2 94 32 17 16.1 101.12   -15 LegendNANA
07:00 Legend Double Dagger -8.7 -9.6 93 32 18 16.1 101.10   -16 LegendNANA
08:00 Legend Double Dagger -8.8 -9.9 92 32 21 16.1 101.08   -17 LegendNANA
09:00 Legend Double Dagger -9.3 -10.2 93 31 18 9.7 101.05   -17 LegendNANA
10:00 Legend Double Dagger -8.1 -9.0 93 33 26 16.1 100.99   -16 LegendNANA
11:00 Legend Double Dagger -7.7 -8.6 93 32 18 16.1 100.98   -15 LegendNANA
12:00 Legend Double Dagger -7.4 -8.5 92 33 21 16.1 100.96   -15 LegendNANA
13:00 Legend Double Dagger -7.6 -8.8 91 33 18 16.1 100.95   -14 LegendNANA
14:00 Legend Double Dagger -7.2 -10.3 78 36 17 16.1 100.92   -14 LegendNANA
15:00 Legend Double Dagger -7.7 -9.6 86 32 13 16.1 100.90   -13 LegendNANA
16:00 Legend Double Dagger -7.8 -9.4 89 32 18 16.1 100.88   -15 LegendNANA
17:00 Legend Double Dagger -7.8 -9.3 89 31 18 16.1 100.86   -15 LegendNANA
18:00 Legend Double Dagger -8.1 -9.3 91 30 17 16.1 100.80   -15 LegendNANA
19:00 Legend Double Dagger -8.3 -9.8 89 29 15 16.1 100.74   -15 LegendNANA
20:00 Legend Double Dagger -8.4 -9.8 90 30 17 16.1 100.69   -15 LegendNANA
21:00 Legend Double Dagger -8.6 -10.0 90 31 13 16.1 100.66   -15 LegendNANA
22:00 Legend Double Dagger -8.6 -10.0 90 30 13 16.1 100.62   -15 LegendNANA
23:00 Legend Double Dagger -8.6 -9.9 90 28 9 16.1 100.58   -13 LegendNANA

Notes on Data Quality.

Legend

  • E = Estimated
  • M = Missing
  • NA = Not Available
  • ‡ = Partner data that is not subject to review by the National Climate Archives
Date modified: